Change the Weather History Date:

Thursday, September 22, 2011

  Actual Average Record
Temperature  
Mean Temperature 52 °F -  
Max Temperature 68 °F 73 °F 91 °F (1988)
Min Temperature 35 °F 48 °F 35 °F (2011)
Degree Days  
Heating Degree Days 14    
Growing Degree Days 2 (Base 50)    
Moisture  
Dew Point 38 °F    
Average Humidity 67    
Maximum Humidity 100    
Minimum Humidity 30    
Precipitation  
Precipitation 0.00 in - - ()
Sea Level Pressure  
Sea Level Pressure 30.16 in    
Wind  
Wind Speed 2 mph (NNW)    
Max Wind Speed 10 mph    
Max Gust Speed 9 mph    
Visibility 10 miles    
Events      
Averages and records for this station are not official NWS values.
T = Trace of Precipitation, MM = Missing Value Source: NWS Daily Summary

Daily Weather History Graph

Daily Weather History Graph

Search for Another Location

Airport or City:

Trip Planner

Search our weather history database for the weather conditions in past years. The results will help you decide how hot, cold, wet, or windy it might be!

Date:

Astronomy

Sep. 22, 2011 Rise Set
Actual Time 7:13 AM CDT 7:23 PM CDT
Civil Twilight 6:45 AM CDT 7:51 PM CDT
Nautical Twilight 6:13 AM CDT 8:23 PM CDT
Astronomical Twilight 5:40 AM CDT 8:56 PM CDT
Moon 1:31 AM CDT (9/22) 4:20 PM CDT (9/22)
Length of Visible Light 13h 05m
Length of Day
12h 10m
Waning Crescent, 28% of the Moon is Illuminated
Sep 22
Waning Crescent
Sep 27
New
Oct 3
First Quarter
Oct 11
Full
Oct 19
Last Quarter

Hourly Weather History & Observations

Time (CDT) Temp. Windchill Dew Point Humidity Pressure Visibility Wind Dir Wind Speed Gust Speed Precip Events Conditions
12:15 AM 42.8 °F - 41.0 °F 93% 30.18 in 10.0 mi Calm Calm - N/A   Clear
12:35 AM 44.6 °F 43.1 °F 41.0 °F 87% 30.18 in 10.0 mi WNW 3.5 mph - N/A   Clear
12:55 AM 42.8 °F - 39.2 °F 87% 30.18 in 10.0 mi Calm Calm - N/A   Clear
1:15 AM 42.8 °F - 41.0 °F 93% 30.18 in 10.0 mi Calm Calm - N/A   Clear
1:35 AM 44.6 °F - 41.0 °F 87% 30.18 in 10.0 mi Calm Calm - N/A   Clear
1:55 AM 42.8 °F - 41.0 °F 93% 30.18 in 10.0 mi Calm Calm - N/A   Clear
2:15 AM 42.8 °F - 39.2 °F 87% 30.18 in 10.0 mi Calm Calm - N/A   Clear
2:35 AM 41.0 °F - 39.2 °F 93% 30.18 in 10.0 mi Calm Calm - N/A   Clear
2:55 AM 41.0 °F 39.0 °F 39.2 °F 93% 30.18 in 10.0 mi WNW 3.5 mph - N/A   Clear
3:15 AM 41.0 °F 38.0 °F 37.4 °F 87% 30.18 in 10.0 mi WNW 4.6 mph - N/A   Clear
3:35 AM 41.0 °F 39.0 °F 37.4 °F 87% 30.17 in 10.0 mi WNW 3.5 mph - N/A   Clear
3:55 AM 39.2 °F 35.9 °F 37.4 °F 93% 30.17 in 10.0 mi WNW 4.6 mph - N/A   Clear
4:15 AM 37.4 °F 33.8 °F 37.4 °F 100% 30.17 in 10.0 mi WNW 4.6 mph - N/A   Clear
4:35 AM 37.4 °F 34.9 °F 37.4 °F 100% 30.16 in 10.0 mi WNW 3.5 mph - N/A   Clear
4:55 AM 37.4 °F - 37.4 °F 100% 30.16 in 10.0 mi Calm Calm - N/A   Clear
5:15 AM 37.4 °F 34.9 °F 37.4 °F 100% 30.16 in 10.0 mi West 3.5 mph - N/A   Clear
5:35 AM 37.4 °F - 37.4 °F 100% 30.16 in 10.0 mi Calm Calm - N/A   Clear
5:55 AM 39.2 °F - 37.4 °F 93% 30.16 in 10.0 mi Calm Calm - N/A   Clear
6:15 AM 39.2 °F 35.9 °F 37.4 °F 93% 30.16 in 10.0 mi West 4.6 mph - N/A   Clear
6:35 AM 39.2 °F 35.9 °F 37.4 °F 93% 30.16 in 10.0 mi NW 4.6 mph - N/A   Clear
6:55 AM 37.4 °F 33.8 °F 37.4 °F 100% 30.17 in 10.0 mi NW 4.6 mph - N/A   Clear
7:15 AM 37.4 °F 33.8 °F 35.6 °F 93% 30.18 in 10.0 mi WNW 4.6 mph - N/A   Clear
7:35 AM 35.6 °F 30.7 °F 35.6 °F 100% 30.19 in 10.0 mi WNW 5.8 mph - N/A   Clear
7:55 AM 37.4 °F - 35.6 °F 93% 30.19 in 10.0 mi Calm Calm - N/A   Clear
8:15 AM 41.0 °F - 39.2 °F 93% 30.20 in 10.0 mi Calm Calm - N/A   Clear
8:35 AM 42.8 °F 41.1 °F 41.0 °F 93% 30.20 in 10.0 mi NW 3.5 mph - N/A   Clear
8:55 AM 44.6 °F 43.1 °F 42.8 °F 93% 30.20 in 10.0 mi NW 3.5 mph - N/A   Clear
9:15 AM 46.4 °F 45.2 °F 42.8 °F 87% 30.21 in 10.0 mi NW 3.5 mph - N/A   Clear
9:35 AM 50.0 °F - 42.8 °F 76% 30.21 in 10.0 mi Calm Calm - N/A   Clear
9:55 AM 51.8 °F - 42.8 °F 71% 30.21 in 10.0 mi Calm Calm - N/A   Clear
10:15 AM 51.8 °F - 42.8 °F 71% 30.22 in 10.0 mi Calm Calm - N/A   Mostly Cloudy
10:55 AM 53.6 °F - 41.0 °F 62% 30.22 in 10.0 mi North 5.8 mph - N/A   Mostly Cloudy
11:35 AM 57.2 °F - 41.0 °F 55% 30.21 in 10.0 mi Calm Calm - N/A   Scattered Clouds
11:55 AM 59.0 °F - 41.0 °F 51% 30.21 in 10.0 mi North 3.5 mph - N/A   Mostly Cloudy
12:15 PM 57.2 °F - 41.0 °F 55% 30.20 in 10.0 mi Calm Calm - N/A   Mostly Cloudy
12:35 PM 59.0 °F - 41.0 °F 51% 30.19 in 10.0 mi Calm Calm - N/A   Scattered Clouds
1:15 PM 60.8 °F - 39.2 °F 45% 30.18 in 10.0 mi Calm Calm - N/A   Clear
1:35 PM 62.6 °F - 41.0 °F 45% 30.17 in 10.0 mi NW 8.1 mph - N/A   Scattered Clouds
1:55 PM 62.6 °F - 39.2 °F 42% 30.16 in 10.0 mi NNW 3.5 mph - N/A   Scattered Clouds
2:15 PM 62.6 °F - 39.2 °F 42% 30.16 in 10.0 mi North 3.5 mph - N/A   Scattered Clouds
2:35 PM 64.4 °F - 37.4 °F 37% 30.15 in 10.0 mi North 5.8 mph - N/A   Clear
2:55 PM 64.4 °F - 37.4 °F 37% 30.14 in 10.0 mi NNW 6.9 mph - N/A   Clear
3:15 PM 66.2 °F - 37.4 °F 35% 30.13 in 10.0 mi NNW 10.4 mph - N/A   Clear
3:35 PM 64.4 °F - 35.6 °F 34% 30.13 in 10.0 mi Calm Calm - N/A   Clear
3:55 PM 66.2 °F - 35.6 °F 32% 30.12 in 10.0 mi NW 10.4 mph - N/A   Clear
4:15 PM 66.2 °F - 35.6 °F 32% 30.11 in 10.0 mi NW 8.1 mph - N/A   Clear
4:35 PM 68.0 °F - 35.6 °F 30% 30.11 in 10.0 mi WNW 5.8 mph 9.2 mph N/A   Clear
4:55 PM 66.2 °F - 35.6 °F 32% 30.11 in 10.0 mi North 3.5 mph - N/A   Clear
5:35 PM 64.4 °F - 35.6 °F 34% 30.11 in 10.0 mi North 5.8 mph - N/A   Clear
5:55 PM 64.4 °F - 35.6 °F 34% 30.11 in 10.0 mi North 5.8 mph - N/A   Clear
6:15 PM 64.4 °F - 35.6 °F 34% 30.11 in 10.0 mi North 5.8 mph - N/A   Clear
6:35 PM 62.6 °F - 33.8 °F 34% 30.11 in 10.0 mi North 6.9 mph - N/A   Clear
6:55 PM 60.8 °F - 33.8 °F 36% 30.12 in 10.0 mi North 3.5 mph - N/A   Clear
7:15 PM 59.0 °F - 33.8 °F 39% 30.12 in 10.0 mi Calm Calm - N/A   Clear
7:35 PM 59.0 °F - 33.8 °F 39% 30.12 in 10.0 mi North 4.6 mph - N/A   Clear
7:55 PM 57.2 °F - 33.8 °F 41% 30.13 in 10.0 mi NNE 3.5 mph - N/A   Clear
8:15 PM 55.4 °F - 35.6 °F 47% 30.13 in 10.0 mi NE 3.5 mph - N/A   Clear
8:35 PM 51.8 °F - 37.4 °F 58% 30.14 in 10.0 mi NE 3.5 mph - N/A   Clear
8:55 PM 51.8 °F - 37.4 °F 58% 30.14 in 10.0 mi NE 4.6 mph - N/A   Clear
9:15 PM 51.8 °F - 37.4 °F 58% 30.14 in 10.0 mi NE 3.5 mph - N/A   Clear
9:35 PM 51.8 °F - 37.4 °F 58% 30.15 in 10.0 mi NE 3.5 mph - N/A   Clear
9:55 PM 50.0 °F - 37.4 °F 62% 30.15 in 10.0 mi Calm Calm - N/A   Clear
10:15 PM 50.0 °F - 37.4 °F 62% 30.15 in 10.0 mi Calm Calm - N/A   Clear
10:35 PM 50.0 °F - 37.4 °F 62% 30.15 in 10.0 mi Calm Calm - N/A   Clear
10:55 PM 44.6 °F - 35.6 °F 71% 30.16 in 10.0 mi Calm Calm - N/A   Clear
11:15 PM 44.6 °F - 37.4 °F 76% 30.16 in 10.0 mi Calm Calm - N/A   Clear
11:35 PM 42.8 °F - 35.6 °F 76% 30.16 in 10.0 mi Calm Calm - N/A   Clear
11:55 PM 42.8 °F - 37.4 °F 81% 30.16 in 10.0 mi Calm Calm - N/A   Clear